When you browse on this site, cookies collect data to enhance your experience and personalize the content and advertising you see.
Visit our Privacy Policy to learn more. By continuing to use the site, you agree to this use of cookies and data.
  • In Hungary
  • List of Countries
  • For 7 days
  • Water Temperature
  • Weather Map
  • News
  • Weather Widgets
  • user-avatar
    Login

    Hourly Weather Manizales

    Today, 20 November, Wednesday

    Time Temperature Precipitation Wind Pressure Humidity
    00:00 +13°C° 0.1 mm 0 mps 602 mmHg 95%
    01:00 +13°C° 0.1 mm 0 mps 601 mmHg 95%
    02:00 +13°C° 0.1 mm 0 mps 601 mmHg 95%
    03:00 +13°C° 0.1 mm 0 mps 601 mmHg 95%
    04:00 +13°C° 0.1 mm 0 mps 601 mmHg 95%
    05:00 +13°C° 0 mm 0 mps 602 mmHg 94%
    06:00 +14°C° 0 mm 0 mps 602 mmHg 93%
    07:00 +14°C° 0 mm 0 mps 603 mmHg 91%
    08:00 +16°C° 0.1 mm 0 mps 603 mmHg 87%
    09:00 +20°C° 0.1 mm 1 mps 604 mmHg 82%
    10:00 +21°C° 0.1 mm 1 mps 605 mmHg 77%
    11:00 +21°C° 0.6 mm 1 mps 604 mmHg 79%
    12:00 +21°C° 0.6 mm 1 mps 604 mmHg 80%
    13:00 +21°C° 0.6 mm 1 mps 603 mmHg 82%
    14:00 +21°C° 1 mm 1 mps 602 mmHg 87%
    15:00 +18°C° 1 mm 0 mps 602 mmHg 91%
    16:00 +18°C° 1 mm 0 mps 602 mmHg 96%
    17:00 +17°C° 0.7 mm 0 mps 601 mmHg 96%
    18:00 +16°C° 0.7 mm 0 mps 601 mmHg 97%
    19:00 +15°C° 0.7 mm 0 mps 601 mmHg 97%
    20:00 +14°C° 0.3 mm 0 mps 602 mmHg 97%
    21:00 +14°C° 0.3 mm 0 mps 602 mmHg 97%
    22:00 +13°C° 0.3 mm 0 mps 602 mmHg 96%
    23:00 +14°C° 0.1 mm 1 mps 602 mmHg 96%

    Tomorrow, 21 November, Thursday

    Time Temperature Precipitation Wind Pressure Humidity
    00:00 +14°C° 0.1 mm 1 mps 601 mmHg 96%
    01:00 +13°C° 0.1 mm 1 mps 601 mmHg 96%
    02:00 +13°C° 0 mm 1 mps 601 mmHg 95%
    03:00 +12°C° 0 mm 0 mps 601 mmHg 95%
    04:00 +12°C° 0 mm 0 mps 601 mmHg 95%
    05:00 +13°C° 0 mm 0 mps 601 mmHg 94%
    06:00 +14°C° 0 mm 0 mps 602 mmHg 93%
    07:00 +14°C° 0 mm 0 mps 603 mmHg 92%
    08:00 +16°C° 0.2 mm 0 mps 603 mmHg 88%
    09:00 +19°C° 0.2 mm 1 mps 604 mmHg 85%
    10:00 +21°C° 0.2 mm 1 mps 605 mmHg 81%
    11:00 +21°C° 0.5 mm 1 mps 604 mmHg 79%
    12:00 +22°C° 0.5 mm 1 mps 603 mmHg 78%
    13:00 +22°C° 0.5 mm 1 mps 603 mmHg 77%
    14:00 +21°C° 1.2 mm 1 mps 602 mmHg 82%
    15:00 +18°C° 1.2 mm 0 mps 602 mmHg 88%
    16:00 +17°C° 1.2 mm 0 mps 601 mmHg 93%
    17:00 +16°C° 2 mm 0 mps 601 mmHg 94%
    18:00 +16°C° 2 mm 1 mps 601 mmHg 96%
    19:00 +15°C° 2 mm 1 mps 601 mmHg 97%
    20:00 +15°C° 0.7 mm 1 mps 601 mmHg 96%
    21:00 +15°C° 0.7 mm 1 mps 601 mmHg 96%
    22:00 +14°C° 0.7 mm 1 mps 602 mmHg 95%
    23:00 +13°C° 0.8 mm 0 mps 602 mmHg 95%

    Day after tomorrow, 22 November, Friday

    Time Temperature Precipitation Wind Pressure Humidity
    00:00 +13°C° 0.8 mm 0 mps 601 mmHg 96%
    01:00 +13°C° 0.8 mm 0 mps 601 mmHg 96%
    02:00 +13°C° 2.4 mm 0 mps 601 mmHg 97%
    03:00 +13°C° 2.4 mm 0 mps 601 mmHg 97%
    04:00 +13°C° 2.4 mm 0 mps 601 mmHg 98%
    05:00 +13°C° 0.8 mm 0 mps 601 mmHg 98%
    06:00 +14°C° 0.8 mm 0 mps 601 mmHg 98%
    07:00 +14°C° 0.8 mm 0 mps 602 mmHg 97%
    08:00 +14°C° 0.2 mm 0 mps 602 mmHg 95%
    09:00 +15°C° 0.2 mm 0 mps 603 mmHg 93%
    10:00 +16°C° 0.2 mm 0 mps 603 mmHg 91%
    11:00 +19°C° 0.4 mm 1 mps 603 mmHg 86%
    12:00 +20°C° 0.4 mm 1 mps 603 mmHg 80%
    13:00 +20°C° 0.4 mm 2 mps 603 mmHg 75%
    14:00 +20°C° 1.2 mm 1 mps 602 mmHg 82%
    15:00 +20°C° 1.2 mm 1 mps 602 mmHg 89%
    16:00 +19°C° 1.2 mm 1 mps 601 mmHg 96%
    17:00 +18°C° 0.8 mm 1 mps 601 mmHg 97%
    18:00 +15°C° 0.8 mm 0 mps 601 mmHg 98%
    19:00 +14°C° 0.8 mm 0 mps 601 mmHg 98%
    20:00 +14°C° 0.1 mm 0 mps 601 mmHg 98%
    21:00 +14°C° 0.1 mm 0 mps 602 mmHg 98%
    22:00 +13°C° 0.1 mm 0 mps 602 mmHg 98%
    23:00 +13°C° 0.5 mm 0 mps 602 mmHg 98%

    23 November, Saturday

    Time Temperature Precipitation Wind Pressure Humidity
    00:00 +13°C° 0.5 mm 0 mps 601 mmHg 98%
    01:00 +13°C° 0.5 mm 0 mps 601 mmHg 98%
    02:00 +13°C° 1 mm 0 mps 601 mmHg 98%
    03:00 +13°C° 1 mm 0 mps 601 mmHg 98%
    04:00 +13°C° 1 mm 0 mps 601 mmHg 98%
    05:00 +13°C° 0.8 mm 0 mps 601 mmHg 98%
    06:00 +13°C° 0.8 mm 0 mps 602 mmHg 97%
    07:00 +14°C° 0.8 mm 0 mps 602 mmHg 97%
    08:00 +15°C° 0.2 mm 0 mps 603 mmHg 93%
    09:00 +18°C° 0.2 mm 1 mps 603 mmHg 90%
    10:00 +19°C° 0.2 mm 1 mps 604 mmHg 86%
    11:00 +20°C° 0.6 mm 1 mps 604 mmHg 85%
    12:00 +20°C° 0.6 mm 1 mps 603 mmHg 84%
    13:00 +21°C° 0.6 mm 1 mps 603 mmHg 84%
    14:00 +20°C° 1 mm 1 mps 602 mmHg 87%
    15:00 +18°C° 1 mm 0 mps 601 mmHg 91%
    16:00 +17°C° 1 mm 0 mps 601 mmHg 95%
    17:00 +16°C° 0.6 mm 0 mps 601 mmHg 96%
    18:00 +15°C° 0.6 mm 0 mps 601 mmHg 97%
    19:00 +14°C° 0.6 mm 0 mps 601 mmHg 98%
    20:00 +14°C° 0.4 mm 0 mps 601 mmHg 98%
    21:00 +14°C° 0.4 mm 0 mps 602 mmHg 97%
    22:00 +14°C° 0.4 mm 0 mps 602 mmHg 97%
    23:00 +14°C° 0.1 mm 0 mps 602 mmHg 97%

    24 November, Sunday

    Time Temperature Precipitation Wind Pressure Humidity
    00:00 +13°C° 0.1 mm 0 mps 602 mmHg 97%
    01:00 +13°C° 0.1 mm 0 mps 602 mmHg 97%
    02:00 +13°C° 0.1 mm 0 mps 601 mmHg 96%
    03:00 +13°C° 0.1 mm 0 mps 601 mmHg 96%
    04:00 +13°C° 0.1 mm 0 mps 600 mmHg 96%
    05:00 +13°C° 0 mm 0 mps 601 mmHg 95%
    06:00 +13°C° 0 mm 0 mps 601 mmHg 93%
    07:00 +14°C° 0 mm 0 mps 602 mmHg 92%
    08:00 +18°C° 0 mm 1 mps 603 mmHg 85%
    09:00 +20°C° 0 mm 1 mps 604 mmHg 77%
    10:00 +22°C° 0 mm 1 mps 604 mmHg 69%
    11:00 +22°C° 0.3 mm 1 mps 604 mmHg 71%
    12:00 +22°C° 0.3 mm 1 mps 603 mmHg 72%
    13:00 +22°C° 0.3 mm 1 mps 602 mmHg 74%
    14:00 +21°C° 0.5 mm 1 mps 601 mmHg 79%
    15:00 +21°C° 0.5 mm 1 mps 601 mmHg 84%
    16:00 +20°C° 0.5 mm 1 mps 600 mmHg 90%
    17:00 +17°C° 0.7 mm 0 mps 600 mmHg 92%
    18:00 +16°C° 0.7 mm 0 mps 600 mmHg 95%
    19:00 +15°C° 0.7 mm 0 mps 601 mmHg 98%
    20:00 +15°C° 0.5 mm 0 mps 601 mmHg 98%
    21:00 +15°C° 0.5 mm 0 mps 601 mmHg 98%
    22:00 +14°C° 0.5 mm 0 mps 602 mmHg 98%
    23:00 +14°C° 0.3 mm 0 mps 601 mmHg 98%

    25 November, Monday

    Time Temperature Precipitation Wind Pressure Humidity
    00:00 +14°C° 0.3 mm 0 mps 601 mmHg 98%
    01:00 +14°C° 0.3 mm 0 mps 601 mmHg 97%
    02:00 +13°C° 0.3 mm 0 mps 600 mmHg 97%
    03:00 +13°C° 0.3 mm 0 mps 600 mmHg 97%
    04:00 +13°C° 0.3 mm 0 mps 600 mmHg 96%
    05:00 +14°C° 0 mm 0 mps 600 mmHg 95%
    06:00 +14°C° 0 mm 0 mps 601 mmHg 94%
    07:00 +14°C° 0 mm 0 mps 601 mmHg 94%
    08:00 +18°C° 0.1 mm 1 mps 602 mmHg 88%
    09:00 +20°C° 0.1 mm 1 mps 603 mmHg 81%
    10:00 +22°C° 0.1 mm 1 mps 603 mmHg 75%
    11:00 +22°C° 0.6 mm 1 mps 603 mmHg 76%
    12:00 +22°C° 0.6 mm 1 mps 602 mmHg 77%
    13:00 +23°C° 0.6 mm 1 mps 601 mmHg 78%
    14:00 +22°C° 1 mm 1 mps 601 mmHg 83%
    15:00 +19°C° 1 mm 0 mps 600 mmHg 89%
    16:00 +18°C° 1 mm 0 mps 599 mmHg 94%
    17:00 +17°C° 0.6 mm 0 mps 599 mmHg 95%
    18:00 +16°C° 0.6 mm 0 mps 599 mmHg 96%
    19:00 +15°C° 0.6 mm 0 mps 600 mmHg 97%
    20:00 +15°C° 0.3 mm 0 mps 600 mmHg 97%
    21:00 +14°C° 0.3 mm 0 mps 600 mmHg 97%
    22:00 +14°C° 0.3 mm 0 mps 600 mmHg 96%
    23:00 +15°C° 0.3 mm 1 mps 600 mmHg 96%
    Show more